Time,TemperatureF,DewpointF,PressureIn,WindDirection,WindDirectionDegrees,WindSpeedMPH,WindSpeedGustMPH,Humidity,HourlyPrecipIn,Conditions,Clouds,dailyrainin,SoftwareType,DateUTC
2013-01-06 00:00:00,25.6,19.7,30.20,ENE,57,0.0,8.0,78,0.00,,,0.02,Wunderground v.1.15,2013-01-06 05:00:00,
2013-01-06 00:05:00,25.6,20.3,30.20,ENE,67,0.0,8.0,80,0.00,,,0.00,Wunderground v.1.15,2013-01-06 05:05:00,
2013-01-06 00:10:00,25.6,20.3,30.21,ENE,67,0.0,8.0,80,0.00,,,0.00,Wunderground v.1.15,2013-01-06 05:10:00,
2013-01-06 00:15:00,25.6,19.7,30.20,ENE,67,0.0,8.0,78,0.00,,,0.00,Wunderground v.1.15,2013-01-06 05:15:00,
2013-01-06 00:20:00,25.9,20.3,30.20,ENE,67,0.0,8.0,79,0.00,,,0.00,Wunderground v.1.15,2013-01-06 05:20:00,
2013-01-06 00:25:00,26.1,19.9,30.20,ENE,67,0.0,8.0,77,0.00,,,0.00,Wunderground v.1.15,2013-01-06 05:25:00,
2013-01-06 00:30:00,26.3,19.8,30.20,ENE,67,0.0,8.0,76,0.00,,,0.00,Wunderground v.1.15,2013-01-06 05:30:00,
2013-01-06 00:35:00,26.4,19.5,30.19,ENE,67,0.0,8.0,75,0.00,,,0.00,Wunderground v.1.15,2013-01-06 05:35:00,
2013-01-06 00:40:00,26.5,19.6,30.20,ENE,67,0.0,8.0,75,0.00,,,0.00,Wunderground v.1.15,2013-01-06 05:40:00,
2013-01-06 00:45:00,26.6,21.3,30.21,ENE,67,0.0,8.0,80,0.00,,,0.00,Wunderground v.1.15,2013-01-06 05:45:00,
2013-01-06 00:55:00,26.7,21.4,30.22,North,355,0.0,8.0,80,0.00,,,0.00,Wunderground v.1.15,2013-01-06 05:55:00,
2013-01-06 01:00:00,26.9,20.7,30.22,North,355,0.0,8.0,77,0.00,,,0.00,Wunderground v.1.15,2013-01-06 06:00:00,
2013-01-06 01:05:00,27.2,20.6,30.22,NNW,338,0.0,8.0,76,0.00,,,0.00,Wunderground v.1.15,2013-01-06 06:05:00,
2013-01-06 01:10:00,27.6,21.0,30.22,NNW,332,0.0,8.0,76,0.00,,,0.00,Wunderground v.1.15,2013-01-06 06:10:00,
2013-01-06 01:15:00,27.9,20.7,30.22,NNW,332,0.0,8.0,74,0.00,,,0.00,Wunderground v.1.15,2013-01-06 06:15:00,
2013-01-06 01:25:00,28.3,20.7,30.21,West,277,1.0,8.0,73,0.00,,,0.00,Wunderground v.1.15,2013-01-06 06:25:00,
2013-01-06 01:30:00,28.3,20.4,30.21,West,277,0.0,8.0,72,0.00,,,0.00,Wunderground v.1.15,2013-01-06 06:30:00,
2013-01-06 01:35:00,28.2,21.0,30.20,West,277,0.0,8.0,74,0.00,,,0.00,Wunderground v.1.15,2013-01-06 06:35:00,
2013-01-06 01:40:00,28.2,21.0,30.22,West,277,0.0,8.0,74,0.00,,,0.00,Wunderground v.1.15,2013-01-06 06:40:00,
2013-01-06 01:45:00,28.1,21.2,30.22,West,277,0.0,8.0,75,0.00,,,0.00,Wunderground v.1.15,2013-01-06 06:45:00,
2013-01-06 01:50:00,28.1,20.9,30.22,West,277,0.0,8.0,74,0.00,,,0.00,Wunderground v.1.15,2013-01-06 06:50:00,
2013-01-06 02:00:00,28.2,21.0,30.22,West,277,1.0,1.0,74,0.00,,,0.00,Wunderground v.1.15,2013-01-06 07:00:00,
2013-01-06 02:05:00,28.0,21.4,30.22,West,277,1.0,8.0,76,0.00,,,0.00,Wunderground v.1.15,2013-01-06 07:05:00,
2013-01-06 02:10:00,27.7,21.1,30.20,SSW,207,1.0,8.0,76,0.00,,,0.00,Wunderground v.1.15,2013-01-06 07:10:00,
2013-01-06 02:15:00,27.3,21.0,30.20,SSW,207,1.0,8.0,77,0.00,,,0.00,Wunderground v.1.15,2013-01-06 07:15:00,
2013-01-06 02:20:00,27.1,20.8,30.19,SSW,207,0.0,8.0,77,0.00,,,0.00,Wunderground v.1.15,2013-01-06 07:20:00,
2013-01-06 02:25:00,26.9,20.7,30.18,SSW,207,0.0,8.0,77,0.00,,,0.00,Wunderground v.1.15,2013-01-06 07:25:00,
2013-01-06 02:30:00,26.8,20.6,30.18,SSW,207,0.0,8.0,77,0.00,,,0.00,Wunderground v.1.15,2013-01-06 07:30:00,
2013-01-06 02:40:00,26.8,21.5,30.18,SSW,207,0.0,8.0,80,0.00,,,0.00,Wunderground v.1.15,2013-01-06 07:40:00,
2013-01-06 02:45:00,27.0,21.4,30.17,SSW,207,0.0,8.0,79,0.00,,,0.00,Wunderground v.1.15,2013-01-06 07:45:00,
2013-01-06 02:50:00,27.1,21.5,30.17,SSW,207,0.0,8.0,79,0.00,,,0.00,Wunderground v.1.15,2013-01-06 07:50:00,
2013-01-06 02:55:00,27.2,21.5,30.16,SSW,207,0.0,8.0,79,0.00,,,0.00,Wunderground v.1.15,2013-01-06 07:55:00,
2013-01-06 03:00:00,27.3,22.2,30.18,SSW,207,0.0,8.0,81,0.00,,,0.00,Wunderground v.1.15,2013-01-06 08:00:00,
2013-01-06 03:05:00,27.4,23.2,30.17,SSW,207,0.0,8.0,84,0.00,,,0.00,Wunderground v.1.15,2013-01-06 08:05:00,
2013-01-06 03:15:00,27.3,23.4,30.17,SSW,207,0.0,8.0,85,0.00,,,0.00,Wunderground v.1.15,2013-01-06 08:15:00,
2013-01-06 03:20:00,27.2,23.8,30.17,SSW,207,0.0,8.0,87,0.00,,,0.00,Wunderground v.1.15,2013-01-06 08:20:00,
2013-01-06 03:25:00,27.0,23.6,30.16,SSW,207,0.0,8.0,87,0.00,,,0.00,Wunderground v.1.15,2013-01-06 08:25:00,
2013-01-06 03:30:00,26.8,23.7,30.16,SSW,207,0.0,8.0,88,0.00,,,0.00,Wunderground v.1.15,2013-01-06 08:30:00,
2013-01-06 03:35:00,26.4,23.6,30.16,SSW,207,0.0,8.0,89,0.00,,,0.00,Wunderground v.1.15,2013-01-06 08:35:00,
2013-01-06 03:40:00,26.1,23.6,30.16,SSW,207,1.0,8.0,90,0.00,,,0.00,Wunderground v.1.15,2013-01-06 08:40:00,
2013-01-06 03:50:00,25.3,23.0,30.15,SSW,210,1.0,8.0,91,0.00,,,0.00,Wunderground v.1.15,2013-01-06 08:50:00,
2013-01-06 03:55:00,25.0,23.0,30.14,SSW,210,1.0,8.0,92,0.00,,,0.00,Wunderground v.1.15,2013-01-06 08:55:00,
2013-01-06 04:00:00,24.9,22.9,30.14,SSW,210,1.0,8.0,92,0.00,,,0.00,Wunderground v.1.15,2013-01-06 09:00:00,
2013-01-06 04:05:00,24.9,23.2,30.14,WSW,250,0.0,8.0,93,0.00,,,0.00,Wunderground v.1.15,2013-01-06 09:05:00,
2013-01-06 04:10:00,25.6,24.1,30.14,SW,236,1.0,8.0,94,0.00,,,0.00,Wunderground v.1.15,2013-01-06 09:10:00,
2013-01-06 04:15:00,26.2,25.0,30.14,WNW,288,2.0,8.0,95,0.00,,,0.00,Wunderground v.1.15,2013-01-06 09:15:00,
2013-01-06 04:20:00,26.6,25.4,30.14,WNW,288,2.0,8.0,95,0.00,,,0.00,Wunderground v.1.15,2013-01-06 09:20:00,
2013-01-06 04:30:00,27.0,25.8,30.13,West,273,2.0,2.0,95,0.00,,,0.00,Wunderground v.1.15,2013-01-06 09:30:00,
2013-01-06 04:35:00,27.1,25.9,30.13,West,275,2.0,8.0,95,0.00,,,0.00,Wunderground v.1.15,2013-01-06 09:35:00,
2013-01-06 04:40:00,27.1,25.9,30.13,West,281,1.0,8.0,95,0.00,,,0.00,Wunderground v.1.15,2013-01-06 09:40:00,
2013-01-06 04:45:00,27.2,26.0,30.13,West,267,1.0,8.0,95,0.00,,,0.00,Wunderground v.1.15,2013-01-06 09:45:00,
2013-01-06 04:50:00,27.2,26.0,30.12,WSW,244,2.0,8.0,95,0.00,,,0.00,Wunderground v.1.15,2013-01-06 09:50:00,
2013-01-06 04:55:00,27.2,26.0,30.12,WNW,294,2.0,8.0,95,0.00,,,0.00,Wunderground v.1.15,2013-01-06 09:55:00,
2013-01-06 05:00:00,27.2,26.0,30.12,WNW,302,2.0,8.0,95,0.00,,,0.00,Wunderground v.1.15,2013-01-06 10:00:00,
2013-01-06 05:05:00,27.2,26.0,30.11,West,271,2.0,8.0,95,0.00,,,0.00,Wunderground v.1.15,2013-01-06 10:05:00,
2013-01-06 05:15:00,27.2,25.7,30.11,West,269,1.0,8.0,94,0.00,,,0.00,Wunderground v.1.15,2013-01-06 10:15:00,
2013-01-06 05:20:00,27.1,25.6,30.11,West,275,1.0,1.0,94,0.00,,,0.00,Wunderground v.1.15,2013-01-06 10:20:00,
2013-01-06 05:25:00,27.1,25.6,30.11,West,273,1.0,8.0,94,0.00,,,0.00,Wunderground v.1.15,2013-01-06 10:25:00,
2013-01-06 05:30:00,27.1,25.6,30.11,WNW,284,1.0,1.0,94,0.00,,,0.00,Wunderground v.1.15,2013-01-06 10:30:00,
2013-01-06 05:40:00,27.1,25.6,30.11,WNW,284,0.0,8.0,94,0.00,,,0.00,Wunderground v.1.15,2013-01-06 10:40:00,
2013-01-06 05:45:00,27.1,25.6,30.11,WNW,284,0.0,8.0,94,0.00,,,0.00,Wunderground v.1.15,2013-01-06 10:45:00,
2013-01-06 05:55:00,27.0,25.5,30.10,West,274,0.0,8.0,94,0.00,,,0.00,Wunderground v.1.15,2013-01-06 10:55:00,
2013-01-06 06:00:00,27.1,25.3,30.11,West,274,1.0,8.0,93,0.00,,,0.00,Wunderground v.1.15,2013-01-06 11:00:00,
2013-01-06 06:05:00,27.1,25.6,30.11,West,276,1.0,8.0,94,0.00,,,0.00,Wunderground v.1.15,2013-01-06 11:05:00,
2013-01-06 06:15:00,27.0,25.2,30.11,West,271,1.0,8.0,93,0.00,,,0.00,Wunderground v.1.15,2013-01-06 11:15:00,
2013-01-06 06:20:00,27.0,25.2,30.11,West,271,1.0,8.0,93,0.00,,,0.00,Wunderground v.1.15,2013-01-06 11:20:00,
2013-01-06 06:25:00,27.0,25.2,30.11,West,271,1.0,8.0,93,0.00,,,0.00,Wunderground v.1.15,2013-01-06 11:25:00,
2013-01-06 06:30:00,27.1,25.3,30.11,West,271,0.0,8.0,93,0.00,,,0.00,Wunderground v.1.15,2013-01-06 11:30:00,
2013-01-06 06:40:00,27.2,25.4,30.10,West,271,1.0,1.0,93,0.00,,,0.00,Wunderground v.1.15,2013-01-06 11:40:00,
2013-01-06 06:45:00,27.2,25.4,30.10,West,266,1.0,8.0,93,0.00,,,0.00,Wunderground v.1.15,2013-01-06 11:45:00,
2013-01-06 06:50:00,27.3,25.3,30.10,West,266,0.0,8.0,92,0.00,,,0.00,Wunderground v.1.15,2013-01-06 11:50:00,
2013-01-06 06:55:00,27.4,25.4,30.10,West,266,0.0,8.0,92,0.00,,,0.00,Wunderground v.1.15,2013-01-06 11:55:00,
2013-01-06 07:00:00,27.3,25.3,30.10,West,266,0.0,8.0,92,0.00,,,0.00,Wunderground v.1.15,2013-01-06 12:00:00,
2013-01-06 07:05:00,27.2,25.2,30.10,West,266,0.0,8.0,92,0.00,,,0.00,Wunderground v.1.15,2013-01-06 12:05:00,
2013-01-06 07:10:00,27.3,25.3,30.10,West,259,1.0,1.0,92,0.00,,,0.00,Wunderground v.1.15,2013-01-06 12:10:00,
2013-01-06 07:20:00,27.4,25.1,30.09,West,269,1.0,1.0,91,0.00,,,0.00,Wunderground v.1.15,2013-01-06 12:20:00,
2013-01-06 07:30:00,27.2,24.9,30.09,West,274,1.0,8.0,91,0.00,,,0.00,Wunderground v.1.15,2013-01-06 12:30:00,
2013-01-06 07:35:00,27.2,24.9,30.09,West,278,1.0,8.0,91,0.00,,,0.00,Wunderground v.1.15,2013-01-06 12:35:00,
2013-01-06 07:40:00,27.1,24.8,30.09,West,279,1.0,1.0,91,0.00,,,0.00,Wunderground v.1.15,2013-01-06 12:40:00,
2013-01-06 07:45:00,27.2,24.9,30.09,WNW,300,1.0,8.0,91,0.00,,,0.00,Wunderground v.1.15,2013-01-06 12:45:00,
2013-01-06 07:50:00,27.2,24.9,30.09,WSW,246,1.0,8.0,91,0.00,,,0.00,Wunderground v.1.15,2013-01-06 12:50:00,
2013-01-06 08:00:00,27.2,24.9,30.08,West,267,1.0,8.0,91,0.00,,,0.00,Wunderground v.1.15,2013-01-06 13:00:00,
2013-01-06 08:05:00,27.3,24.8,30.09,West,279,1.0,8.0,90,0.00,,,0.00,Wunderground v.1.15,2013-01-06 13:05:00,
2013-01-06 08:15:00,27.5,25.0,30.09,West,271,2.0,8.0,90,0.00,,,0.00,Wunderground v.1.15,2013-01-06 13:15:00,
2013-01-06 08:20:00,27.7,24.9,30.08,West,278,2.0,2.0,89,0.00,,,0.00,Wunderground v.1.15,2013-01-06 13:20:00,
2013-01-06 08:25:00,28.1,25.3,30.08,NNW,327,1.0,8.0,89,0.00,,,0.00,Wunderground v.1.15,2013-01-06 13:25:00,
2013-01-06 08:30:00,28.5,25.4,30.08,WNW,290,2.0,2.0,88,0.00,,,0.00,Wunderground v.1.15,2013-01-06 13:30:00,
2013-01-06 08:35:00,28.8,25.4,30.08,WNW,294,2.0,8.0,87,0.00,,,0.00,Wunderground v.1.15,2013-01-06 13:35:00,
2013-01-06 08:40:00,29.1,25.4,30.08,WNW,287,2.0,8.0,86,0.00,,,0.00,Wunderground v.1.15,2013-01-06 13:40:00,
2013-01-06 08:45:00,29.4,25.4,30.08,WSW,248,2.0,8.0,85,0.00,,,0.00,Wunderground v.1.15,2013-01-06 13:45:00,
2013-01-06 08:55:00,29.8,25.6,30.08,WNW,286,2.0,8.0,84,0.00,,,0.00,Wunderground v.1.15,2013-01-06 13:55:00,
2013-01-06 09:00:00,30.1,25.6,30.08,NW,312,2.0,2.0,83,0.00,,,0.00,Wunderground v.1.15,2013-01-06 14:00:00,
2013-01-06 09:05:00,30.3,25.8,30.08,SW,234,2.0,6.0,83,0.00,,,0.00,Wunderground v.1.15,2013-01-06 14:05:00,
2013-01-06 09:10:00,30.3,25.8,30.08,SW,224,3.0,8.0,83,0.00,,,0.00,Wunderground v.1.15,2013-01-06 14:10:00,
2013-01-06 09:15:00,30.4,25.9,30.08,SW,231,4.0,8.0,83,0.00,,,0.00,Wunderground v.1.15,2013-01-06 14:15:00,
2013-01-06 09:20:00,30.7,25.9,30.07,WSW,250,3.0,3.0,82,0.00,,,0.00,Wunderground v.1.15,2013-01-06 14:20:00,
2013-01-06 09:25:00,31.0,26.1,30.07,WSW,253,2.0,8.0,82,0.00,,,0.00,Wunderground v.1.15,2013-01-06 14:25:00,
2013-01-06 09:35:00,31.1,26.0,30.07,SW,232,3.0,8.0,81,0.00,,,0.01,Wunderground v.1.15,2013-01-06 14:35:00,
2013-01-06 09:45:00,31.4,26.5,30.07,West,273,2.0,8.0,82,0.00,,,0.01,Wunderground v.1.15,2013-01-06 14:45:00,
2013-01-06 09:50:00,31.7,26.5,30.07,West,280,2.0,2.0,81,0.00,,,0.01,Wunderground v.1.15,2013-01-06 14:50:00,
2013-01-06 09:55:00,31.9,26.7,30.07,WSW,252,2.0,8.0,81,0.00,,,0.01,Wunderground v.1.15,2013-01-06 14:55:00,
2013-01-06 10:00:00,32.2,27.0,30.07,West,279,2.0,8.0,81,0.00,,,0.01,Wunderground v.1.15,2013-01-06 15:00:00,
2013-01-06 10:05:00,32.3,27.1,30.07,WNW,290,2.0,8.0,81,0.00,,,0.01,Wunderground v.1.15,2013-01-06 15:05:00,
2013-01-06 10:15:00,32.8,27.3,30.08,WNW,284,2.0,8.0,80,0.00,,,0.01,Wunderground v.1.15,2013-01-06 15:15:00,
2013-01-06 10:20:00,33.3,27.5,30.07,WSW,248,2.0,8.0,79,0.00,,,0.01,Wunderground v.1.15,2013-01-06 15:20:00,
2013-01-06 10:25:00,33.6,27.5,30.07,SW,235,3.0,8.0,78,0.00,,,0.01,Wunderground v.1.15,2013-01-06 15:25:00,
2013-01-06 10:30:00,33.9,27.4,30.07,NW,308,3.0,3.0,77,0.00,,,0.01,Wunderground v.1.15,2013-01-06 15:30:00,
2013-01-06 10:35:00,34.2,27.7,30.07,WNW,286,3.0,8.0,77,0.00,,,0.01,Wunderground v.1.15,2013-01-06 15:35:00,
2013-01-06 10:40:00,34.4,27.9,30.06,WSW,248,3.0,8.0,77,0.00,,,0.01,Wunderground v.1.15,2013-01-06 15:40:00,
2013-01-06 10:45:00,34.3,27.5,30.06,West,278,3.0,8.0,76,0.00,,,0.01,Wunderground v.1.15,2013-01-06 15:45:00,
2013-01-06 10:50:00,34.9,28.1,30.06,WNW,302,2.0,8.0,76,0.00,,,0.01,Wunderground v.1.15,2013-01-06 15:50:00,
2013-01-06 11:00:00,34.9,28.1,30.05,WNW,298,3.0,8.0,76,0.00,,,0.01,Wunderground v.1.15,2013-01-06 16:00:00,
2013-01-06 11:05:00,35.4,27.9,30.04,West,271,3.0,8.0,74,0.00,,,0.02,Wunderground v.1.15,2013-01-06 16:05:00,
2013-01-06 11:10:00,35.9,28.4,30.04,NW,308,3.0,8.0,74,0.00,,,0.02,Wunderground v.1.15,2013-01-06 16:10:00,
2013-01-06 11:15:00,35.9,27.7,30.04,WNW,292,4.0,8.0,72,0.00,,,0.02,Wunderground v.1.15,2013-01-06 16:15:00,
2013-01-06 11:20:00,36.1,27.9,30.03,WNW,300,4.0,4.0,72,0.00,,,0.02,Wunderground v.1.15,2013-01-06 16:20:00,
2013-01-06 11:25:00,36.5,28.0,30.03,West,277,4.0,8.0,71,0.00,,,0.02,Wunderground v.1.15,2013-01-06 16:25:00,
2013-01-06 11:30:00,37.1,28.2,30.03,West,259,4.0,4.0,70,0.00,,,0.02,Wunderground v.1.15,2013-01-06 16:30:00,
2013-01-06 11:35:00,37.7,28.8,30.02,WSW,242,3.0,8.0,70,0.00,,,0.02,Wunderground v.1.15,2013-01-06 16:35:00,
2013-01-06 11:40:00,38.0,28.4,30.02,WNW,298,2.0,8.0,68,0.00,,,0.02,Wunderground v.1.15,2013-01-06 16:40:00,
2013-01-06 11:50:00,38.6,28.9,30.02,WNW,282,3.0,8.0,68,0.00,,,0.02,Wunderground v.1.15,2013-01-06 16:50:00,
2013-01-06 11:55:00,38.5,28.1,30.01,WNW,282,2.0,8.0,66,0.00,,,0.02,Wunderground v.1.15,2013-01-06 16:55:00,
2013-01-06 12:00:00,38.9,28.9,30.01,NNW,348,2.0,8.0,67,0.00,,,0.02,Wunderground v.1.15,2013-01-06 17:00:00,
2013-01-06 12:05:00,39.1,29.1,30.01,NNE,24,2.0,8.0,67,0.00,,,0.02,Wunderground v.1.15,2013-01-06 17:05:00,
2013-01-06 12:10:00,39.0,29.3,30.01,North,355,3.0,3.0,68,0.00,,,0.02,Wunderground v.1.15,2013-01-06 17:10:00,
2013-01-06 12:15:00,39.0,28.6,30.00,NW,306,3.0,8.0,66,0.00,,,0.02,Wunderground v.1.15,2013-01-06 17:15:00,
2013-01-06 12:25:00,38.9,28.9,30.00,NW,313,3.0,8.0,67,0.00,,,0.02,Wunderground v.1.15,2013-01-06 17:25:00,
2013-01-06 12:30:00,39.1,28.7,29.99,WSW,240,3.0,8.0,66,0.00,,,0.02,Wunderground v.1.15,2013-01-06 17:30:00,
2013-01-06 12:35:00,39.4,29.3,29.99,NW,306,2.0,8.0,67,0.00,,,0.02,Wunderground v.1.15,2013-01-06 17:35:00,
2013-01-06 12:40:00,40.0,29.6,29.99,West,263,2.0,8.0,66,0.00,,,0.02,Wunderground v.1.15,2013-01-06 17:40:00,
2013-01-06 12:45:00,39.4,29.0,29.99,West,275,3.0,8.0,66,0.00,,,0.02,Wunderground v.1.15,2013-01-06 17:45:00,
2013-01-06 12:50:00,39.2,28.8,29.99,West,273,4.0,8.0,66,0.00,,,0.02,Wunderground v.1.15,2013-01-06 17:50:00,
2013-01-06 12:55:00,39.2,29.2,29.98,West,269,4.0,8.0,67,0.00,,,0.02,Wunderground v.1.15,2013-01-06 17:55:00,
2013-01-06 13:05:00,39.4,29.7,29.98,NNW,334,4.0,8.0,68,0.00,,,0.02,Wunderground v.1.15,2013-01-06 18:05:00,
2013-01-06 13:15:00,39.3,29.3,29.99,West,276,4.0,8.0,67,0.00,,,0.02,Wunderground v.1.15,2013-01-06 18:15:00,
2013-01-06 13:20:00,39.8,29.7,29.99,NNW,342,3.0,3.0,67,0.00,,,0.02,Wunderground v.1.15,2013-01-06 18:20:00,
2013-01-06 13:25:00,40.5,29.7,29.99,NW,324,2.0,8.0,65,0.00,,,0.02,Wunderground v.1.15,2013-01-06 18:25:00,
2013-01-06 13:30:00,40.6,29.7,29.99,NNW,327,2.0,2.0,65,0.00,,,0.02,Wunderground v.1.15,2013-01-06 18:30:00,
2013-01-06 13:35:00,40.7,29.5,29.99,NNW,336,2.0,3.0,64,0.00,,,0.02,Wunderground v.1.15,2013-01-06 18:35:00,
2013-01-06 13:40:00,41.3,30.0,29.99,NW,312,2.0,2.0,64,0.00,,,0.02,Wunderground v.1.15,2013-01-06 18:40:00,
2013-01-06 13:50:00,40.4,29.6,29.99,WNW,285,3.0,3.0,65,0.00,,,0.02,Wunderground v.1.15,2013-01-06 18:50:00,
2013-01-06 13:55:00,40.1,29.3,29.98,NW,304,3.0,4.0,65,0.00,,,0.02,Wunderground v.1.15,2013-01-06 18:55:00,
2013-01-06 14:00:00,40.2,29.7,29.98,WNW,285,3.0,3.0,66,0.00,,,0.02,Wunderground v.1.15,2013-01-06 19:00:00,
2013-01-06 14:05:00,40.3,29.1,29.98,NNE,16,2.0,8.0,64,0.00,,,0.02,Wunderground v.1.15,2013-01-06 19:05:00,
2013-01-06 14:10:00,40.4,29.2,29.98,North,350,3.0,3.0,64,0.00,,,0.02,Wunderground v.1.15,2013-01-06 19:10:00,
2013-01-06 14:15:00,40.4,29.2,29.98,NW,316,2.0,8.0,64,0.00,,,0.02,Wunderground v.1.15,2013-01-06 19:15:00,
2013-01-06 14:25:00,41.0,29.4,29.97,NW,314,2.0,8.0,63,0.00,,,0.02,Wunderground v.1.15,2013-01-06 19:25:00,
2013-01-06 14:30:00,41.0,29.4,29.97,NNW,340,2.0,2.0,63,0.00,,,0.02,Wunderground v.1.15,2013-01-06 19:30:00,
2013-01-06 14:35:00,40.6,29.4,29.97,WNW,299,2.0,4.0,64,0.00,,,0.02,Wunderground v.1.15,2013-01-06 19:35:00,
2013-01-06 14:40:00,40.4,28.8,29.97,WSW,251,2.0,8.0,63,0.00,,,0.02,Wunderground v.1.15,2013-01-06 19:40:00,
2013-01-06 14:45:00,40.2,28.6,29.97,WSW,246,2.0,8.0,63,0.00,,,0.02,Wunderground v.1.15,2013-01-06 19:45:00,
2013-01-06 14:50:00,40.5,29.3,29.97,WSW,246,1.0,1.0,64,0.00,,,0.02,Wunderground v.1.15,2013-01-06 19:50:00,
2013-01-06 15:05:00,40.6,29.0,29.97,WNW,289,2.0,8.0,63,0.00,,,0.02,Wunderground v.1.15,2013-01-06 20:05:00,
2013-01-06 15:10:00,40.1,28.9,29.97,West,274,2.0,8.0,64,0.00,,,0.02,Wunderground v.1.15,2013-01-06 20:10:00,
2013-01-06 15:15:00,40.0,28.8,29.97,West,279,2.0,8.0,64,0.00,,,0.02,Wunderground v.1.15,2013-01-06 20:15:00,
2013-01-06 15:25:00,38.6,28.6,29.97,WNW,301,1.0,8.0,67,0.00,,,0.02,Wunderground v.1.15,2013-01-06 20:25:00,
2013-01-06 15:30:00,38.1,28.1,29.97,NW,305,1.0,8.0,67,0.00,,,0.02,Wunderground v.1.15,2013-01-06 20:30:00,
2013-01-06 15:35:00,37.8,28.2,29.97,WNW,285,1.0,8.0,68,0.00,,,0.02,Wunderground v.1.15,2013-01-06 20:35:00,
2013-01-06 15:40:00,37.7,28.4,29.97,WNW,285,0.0,8.0,69,0.00,,,0.02,Wunderground v.1.15,2013-01-06 20:40:00,
2013-01-06 15:45:00,37.5,28.2,29.97,WNW,285,0.0,8.0,69,0.00,,,0.02,Wunderground v.1.15,2013-01-06 20:45:00,
2013-01-06 15:50:00,37.3,28.4,29.98,WNW,285,0.0,8.0,70,0.00,,,0.02,Wunderground v.1.15,2013-01-06 20:50:00,
2013-01-06 16:00:00,37.5,28.2,29.98,WNW,282,0.0,8.0,69,0.00,,,0.02,Wunderground v.1.15,2013-01-06 21:00:00,
2013-01-06 16:10:00,37.5,28.2,29.98,WNW,292,1.0,8.0,69,0.00,,,0.02,Wunderground v.1.15,2013-01-06 21:10:00,
2013-01-06 16:15:00,37.2,28.0,29.98,West,277,1.0,8.0,69,0.00,,,0.02,Wunderground v.1.15,2013-01-06 21:15:00,
2013-01-06 16:20:00,36.9,28.4,29.98,West,277,0.0,8.0,71,0.00,,,0.02,Wunderground v.1.15,2013-01-06 21:20:00,
2013-01-06 16:25:00,36.6,28.1,29.98,WNW,294,0.0,8.0,71,0.00,,,0.02,Wunderground v.1.15,2013-01-06 21:25:00,
2013-01-06 16:35:00,36.0,27.8,29.98,WNW,291,0.0,8.0,72,0.00,,,0.02,Wunderground v.1.15,2013-01-06 21:35:00,
2013-01-06 16:40:00,35.8,27.7,29.98,WNW,291,0.0,8.0,72,0.00,,,0.02,Wunderground v.1.15,2013-01-06 21:40:00,
2013-01-06 16:45:00,35.6,27.5,29.98,WNW,291,0.0,8.0,72,0.00,,,0.02,Wunderground v.1.15,2013-01-06 21:45:00,
2013-01-06 16:50:00,35.4,27.3,29.98,WNW,291,0.0,8.0,72,0.00,,,0.02,Wunderground v.1.15,2013-01-06 21:50:00,
2013-01-06 17:00:00,35.1,27.3,29.97,WNW,291,0.0,8.0,73,0.00,,,0.02,Wunderground v.1.15,2013-01-06 22:00:00,
2013-01-06 17:05:00,34.9,27.1,29.97,WNW,291,0.0,8.0,73,0.00,,,0.02,Wunderground v.1.15,2013-01-06 22:05:00,
2013-01-06 17:10:00,34.7,26.9,29.98,WNW,291,0.0,8.0,73,0.00,,,0.02,Wunderground v.1.15,2013-01-06 22:10:00,
2013-01-06 17:15:00,34.6,27.2,29.98,WNW,291,0.0,8.0,74,0.00,,,0.02,Wunderground v.1.15,2013-01-06 22:15:00,
2013-01-06 17:20:00,34.3,27.2,29.98,WNW,291,0.0,8.0,75,0.00,,,0.02,Wunderground v.1.15,2013-01-06 22:20:00,
2013-01-06 17:25:00,34.0,27.2,29.98,WNW,291,0.0,8.0,76,0.00,,,0.02,Wunderground v.1.15,2013-01-06 22:25:00,
2013-01-06 17:30:00,33.9,27.1,29.99,WNW,291,0.0,8.0,76,0.00,,,0.02,Wunderground v.1.15,2013-01-06 22:30:00,
2013-01-06 17:40:00,34.3,27.5,29.99,WNW,291,0.0,8.0,76,0.00,,,0.02,Wunderground v.1.15,2013-01-06 22:40:00,
2013-01-06 17:45:00,34.5,27.4,29.98,WSW,253,0.0,8.0,75,0.00,,,0.02,Wunderground v.1.15,2013-01-06 22:45:00,
2013-01-06 17:50:00,35.0,27.5,29.98,WSW,253,0.0,8.0,74,0.00,,,0.02,Wunderground v.1.15,2013-01-06 22:50:00,
2013-01-06 17:55:00,35.1,27.6,29.99,WSW,253,0.0,8.0,74,0.00,,,0.02,Wunderground v.1.15,2013-01-06 22:55:00,
2013-01-06 18:00:00,35.0,27.5,29.99,WSW,254,0.0,8.0,74,0.00,,,0.02,Wunderground v.1.15,2013-01-06 23:00:00,
2013-01-06 18:10:00,35.1,27.6,29.99,NW,313,0.0,8.0,74,0.00,,,0.02,Wunderground v.1.15,2013-01-06 23:10:00,
2013-01-06 18:15:00,34.9,27.5,29.99,NW,313,0.0,8.0,74,0.00,,,0.02,Wunderground v.1.15,2013-01-06 23:15:00,
2013-01-06 18:20:00,34.7,27.3,29.99,NW,313,0.0,8.0,74,0.00,,,0.02,Wunderground v.1.15,2013-01-06 23:20:00,
2013-01-06 18:25:00,34.5,27.1,29.99,NW,313,0.0,8.0,74,0.00,,,0.02,Wunderground v.1.15,2013-01-06 23:25:00,
2013-01-06 18:30:00,34.3,26.9,29.99,NW,313,0.0,8.0,74,0.00,,,0.02,Wunderground v.1.15,2013-01-06 23:30:00,
2013-01-06 18:35:00,34.0,26.9,29.99,West,279,0.0,8.0,75,0.00,,,0.02,Wunderground v.1.15,2013-01-06 23:35:00,
2013-01-06 18:40:00,33.9,27.4,29.99,West,279,0.0,8.0,77,0.00,,,0.02,Wunderground v.1.15,2013-01-06 23:40:00,
2013-01-06 18:50:00,34.3,27.5,30.00,West,273,1.0,1.0,76,0.00,,,0.02,Wunderground v.1.15,2013-01-06 23:50:00,
2013-01-06 18:55:00,34.4,27.6,30.00,WNW,285,0.0,8.0,76,0.00,,,0.02,Wunderground v.1.15,2013-01-06 23:55:00,
2013-01-06 19:00:00,34.8,27.7,30.00,WNW,282,1.0,8.0,75,0.00,,,0.02,Wunderground v.1.15,2013-01-07 00:00:00,
2013-01-06 19:05:00,35.0,27.9,30.00,WNW,284,1.0,8.0,75,0.00,,,0.02,Wunderground v.1.15,2013-01-07 00:05:00,
2013-01-06 19:10:00,35.1,27.6,30.00,WNW,296,0.0,8.0,74,0.00,,,0.02,Wunderground v.1.15,2013-01-07 00:10:00,
2013-01-06 19:15:00,35.1,27.6,30.00,NW,305,1.0,8.0,74,0.00,,,0.02,Wunderground v.1.15,2013-01-07 00:15:00,
2013-01-06 19:20:00,35.2,27.7,30.00,SW,230,1.0,1.0,74,0.00,,,0.02,Wunderground v.1.15,2013-01-07 00:20:00,
2013-01-06 19:30:00,34.9,27.8,30.00,NW,307,0.0,8.0,75,0.00,,,0.02,Wunderground v.1.15,2013-01-07 00:30:00,
2013-01-06 19:35:00,34.8,27.7,30.00,WNW,293,0.0,8.0,75,0.00,,,0.02,Wunderground v.1.15,2013-01-07 00:35:00,
2013-01-06 19:40:00,34.7,27.6,30.00,WNW,287,1.0,8.0,75,0.00,,,0.02,Wunderground v.1.15,2013-01-07 00:40:00,
2013-01-06 19:45:00,34.8,27.7,30.00,SSW,202,1.0,8.0,75,0.00,,,0.02,Wunderground v.1.15,2013-01-07 00:45:00,
2013-01-06 19:50:00,34.8,27.7,30.00,WNW,300,1.0,8.0,75,0.00,,,0.02,Wunderground v.1.15,2013-01-07 00:50:00,
2013-01-06 19:55:00,35.1,28.0,30.00,NW,304,2.0,8.0,75,0.00,,,0.02,Wunderground v.1.15,2013-01-07 00:55:00,
2013-01-06 20:05:00,35.3,27.8,29.99,North,355,2.0,8.0,74,0.00,,,0.02,Wunderground v.1.15,2013-01-07 01:05:00,
2013-01-06 20:10:00,35.3,27.8,30.00,NW,307,2.0,2.0,74,0.00,,,0.02,Wunderground v.1.15,2013-01-07 01:10:00,
2013-01-06 20:15:00,35.2,27.7,30.00,WNW,300,2.0,8.0,74,0.00,,,0.02,Wunderground v.1.15,2013-01-07 01:15:00,
2013-01-06 20:20:00,35.1,27.6,30.00,NNE,22,1.0,1.0,74,0.00,,,0.02,Wunderground v.1.15,2013-01-07 01:20:00,
2013-01-06 20:25:00,35.0,27.5,30.00,NW,313,1.0,8.0,74,0.00,,,0.02,Wunderground v.1.15,2013-01-07 01:25:00,
2013-01-06 20:30:00,34.8,27.7,30.00,NW,321,1.0,8.0,75,0.00,,,0.02,Wunderground v.1.15,2013-01-07 01:30:00,
2013-01-06 20:40:00,34.4,27.3,30.00,NW,321,0.0,8.0,75,0.00,,,0.02,Wunderground v.1.15,2013-01-07 01:40:00,
2013-01-06 20:45:00,34.1,27.3,30.00,NW,321,0.0,8.0,76,0.00,,,0.02,Wunderground v.1.15,2013-01-07 01:45:00,
2013-01-06 20:50:00,33.9,27.1,30.00,NW,321,0.0,8.0,76,0.00,,,0.02,Wunderground v.1.15,2013-01-07 01:50:00,
2013-01-06 20:55:00,33.7,27.3,30.00,NW,321,0.0,8.0,77,0.00,,,0.02,Wunderground v.1.15,2013-01-07 01:55:00,
2013-01-06 21:00:00,33.6,27.2,30.00,NW,321,0.0,8.0,77,0.00,,,0.02,Wunderground v.1.15,2013-01-07 02:00:00,
2013-01-06 21:05:00,33.3,26.9,30.00,NW,321,0.0,8.0,77,0.00,,,0.02,Wunderground v.1.15,2013-01-07 02:05:00,
2013-01-06 21:15:00,33.1,27.0,30.00,WNW,284,0.0,8.0,78,0.00,,,0.02,Wunderground v.1.15,2013-01-07 02:15:00,
2013-01-06 21:20:00,32.8,26.7,30.00,WNW,284,0.0,8.0,78,0.00,,,0.02,Wunderground v.1.15,2013-01-07 02:20:00,
2013-01-06 21:25:00,32.3,26.5,30.00,WNW,284,0.0,8.0,79,0.00,,,0.02,Wunderground v.1.15,2013-01-07 02:25:00,
2013-01-06 21:30:00,32.3,26.8,30.01,WNW,284,0.0,8.0,80,0.00,,,0.02,Wunderground v.1.15,2013-01-07 02:30:00,
2013-01-06 21:35:00,32.1,26.6,30.01,WNW,284,0.0,8.0,80,0.00,,,0.02,Wunderground v.1.15,2013-01-07 02:35:00,
2013-01-06 21:40:00,32.1,26.9,30.01,WNW,284,0.0,8.0,81,0.00,,,0.02,Wunderground v.1.15,2013-01-07 02:40:00,
2013-01-06 21:45:00,32.1,26.9,30.00,WNW,284,0.0,8.0,81,0.00,,,0.02,Wunderground v.1.15,2013-01-07 02:45:00,
2013-01-06 21:55:00,31.8,26.6,30.01,West,281,0.0,8.0,81,0.00,,,0.02,Wunderground v.1.15,2013-01-07 02:55:00,
2013-01-06 22:00:00,31.8,26.9,30.01,West,281,0.0,8.0,82,0.00,,,0.02,Wunderground v.1.15,2013-01-07 03:00:00,
2013-01-06 22:05:00,31.7,26.8,30.01,West,281,0.0,8.0,82,0.00,,,0.02,Wunderground v.1.15,2013-01-07 03:05:00,
2013-01-06 22:10:00,31.6,26.7,30.01,West,281,0.0,8.0,82,0.00,,,0.02,Wunderground v.1.15,2013-01-07 03:10:00,
2013-01-06 22:15:00,31.7,26.8,30.01,West,281,0.0,8.0,82,0.00,,,0.02,Wunderground v.1.15,2013-01-07 03:15:00,
2013-01-06 22:20:00,31.7,26.8,30.01,West,281,0.0,8.0,82,0.00,,,0.02,Wunderground v.1.15,2013-01-07 03:20:00,
2013-01-06 22:25:00,31.5,26.6,30.01,West,281,0.0,8.0,82,0.00,,,0.02,Wunderground v.1.15,2013-01-07 03:25:00,
2013-01-06 22:30:00,31.4,26.5,30.02,West,281,0.0,8.0,82,0.00,,,0.02,Wunderground v.1.15,2013-01-07 03:30:00,
2013-01-06 22:40:00,31.1,26.5,30.02,West,281,0.0,8.0,83,0.00,,,0.02,Wunderground v.1.15,2013-01-07 03:40:00,
2013-01-06 22:45:00,31.0,26.4,30.02,West,281,0.0,8.0,83,0.00,,,0.02,Wunderground v.1.15,2013-01-07 03:45:00,
2013-01-06 22:50:00,30.9,26.3,30.02,West,281,0.0,8.0,83,0.00,,,0.02,Wunderground v.1.15,2013-01-07 03:50:00,
2013-01-06 22:55:00,30.7,26.1,30.02,West,281,0.0,8.0,83,0.00,,,0.02,Wunderground v.1.15,2013-01-07 03:55:00,
2013-01-06 23:00:00,30.6,26.3,30.02,West,281,0.0,8.0,84,0.00,,,0.02,Wunderground v.1.15,2013-01-07 04:00:00,
2013-01-06 23:05:00,30.5,26.2,30.02,West,281,0.0,8.0,84,0.00,,,0.02,Wunderground v.1.15,2013-01-07 04:05:00,
2013-01-06 23:10:00,30.5,26.2,30.02,West,281,0.0,8.0,84,0.00,,,0.02,Wunderground v.1.15,2013-01-07 04:10:00,
2013-01-06 23:20:00,30.5,26.5,30.02,West,281,0.0,8.0,85,0.00,,,0.02,Wunderground v.1.15,2013-01-07 04:20:00,
2013-01-06 23:25:00,30.6,26.6,30.02,West,276,0.0,8.0,85,0.00,,,0.02,Wunderground v.1.15,2013-01-07 04:25:00,
2013-01-06 23:30:00,30.7,26.4,30.03,West,276,0.0,8.0,84,0.00,,,0.02,Wunderground v.1.15,2013-01-07 04:30:00,
2013-01-06 23:35:00,30.6,26.3,30.02,West,276,0.0,8.0,84,0.00,,,0.02,Wunderground v.1.15,2013-01-07 04:35:00,
2013-01-06 23:40:00,30.5,26.2,30.03,West,276,0.0,8.0,84,0.00,,,0.02,Wunderground v.1.15,2013-01-07 04:40:00,
2013-01-06 23:45:00,30.5,26.5,30.03,West,277,0.0,8.0,85,0.00,,,0.02,Wunderground v.1.15,2013-01-07 04:45:00,
2013-01-06 23:50:00,31.0,27.0,30.03,WNW,284,0.0,8.0,85,0.00,,,0.02,Wunderground v.1.15,2013-01-07 04:50:00,
2013-01-06 23:55:00,31.1,27.1,30.03,WNW,284,0.0,8.0,85,0.00,,,0.02,Wunderground v.1.15,2013-01-07 04:55:00,